TimeEDT,TemperatureF,Dew PointF,Humidity,Sea Level PressureIn,VisibilityMPH,Wind Direction,Wind SpeedMPH,Gust SpeedMPH,PrecipitationIn,Events,Conditions,WindDirDegrees,DateUTC
12:51 AM,39.0,25.0,57,30.26,10.0,Calm,Calm,-,N/A,,Partly Cloudy,0,2012-04-30 04:51:00
1:51 AM,36.0,25.0,64,30.25,10.0,East,4.6,-,N/A,,Partly Cloudy,100,2012-04-30 05:51:00
2:51 AM,37.9,23.0,55,30.22,10.0,East,8.1,-,N/A,,Partly Cloudy,90,2012-04-30 06:51:00
3:51 AM,41.0,23.0,49,30.19,10.0,East,8.1,-,N/A,,Mostly Cloudy,90,2012-04-30 07:51:00
4:51 AM,45.0,21.0,39,30.19,10.0,ESE,10.4,-,N/A,,Mostly Cloudy,110,2012-04-30 08:51:00
5:51 AM,46.0,19.9,35,30.18,10.0,ESE,10.4,-,N/A,,Mostly Cloudy,110,2012-04-30 09:51:00
6:51 AM,46.9,19.0,33,30.18,10.0,ESE,10.4,19.6,N/A,,Mostly Cloudy,120,2012-04-30 10:51:00
7:51 AM,48.9,21.0,33,30.18,10.0,ESE,8.1,-,N/A,,Mostly Cloudy,110,2012-04-30 11:51:00
8:51 AM,52.0,23.0,32,30.17,10.0,ESE,12.7,-,N/A,,Overcast,110,2012-04-30 12:51:00
9:51 AM,55.0,24.1,30,30.14,10.0,SE,12.7,-,N/A,,Overcast,140,2012-04-30 13:51:00
10:51 AM,55.0,28.9,37,30.14,10.0,SSE,6.9,-,0.00,Rain,Light Rain,150,2012-04-30 14:51:00
11:51 AM,54.0,39.9,59,30.11,10.0,ESE,8.1,-,0.01,,Overcast,110,2012-04-30 15:51:00
12:51 PM,64.0,39.9,41,30.06,10.0,SE,10.4,-,N/A,,Mostly Cloudy,130,2012-04-30 16:51:00
1:51 PM,66.9,44.1,44,30.02,10.0,SSE,9.2,-,N/A,,Mostly Cloudy,150,2012-04-30 17:51:00
2:51 PM,71.1,48.0,44,30.00,10.0,SSE,8.1,-,N/A,,Mostly Cloudy,150,2012-04-30 18:51:00
3:51 PM,73.9,50.0,43,29.98,10.0,SSW,6.9,-,N/A,,Mostly Cloudy,210,2012-04-30 19:51:00
4:51 PM,77.0,53.1,43,29.94,10.0,South,6.9,-,N/A,,Mostly Cloudy,180,2012-04-30 20:51:00
5:51 PM,78.1,55.0,45,29.91,10.0,South,5.8,-,N/A,,Overcast,170,2012-04-30 21:51:00
6:51 PM,78.1,54.0,43,29.89,10.0,SSW,10.4,19.6,N/A,,Overcast,210,2012-04-30 22:51:00
7:51 PM,75.9,54.0,46,29.88,10.0,SSW,6.9,-,N/A,,Overcast,210,2012-04-30 23:51:00
8:51 PM,73.9,52.0,46,29.88,10.0,SW,6.9,-,N/A,,Mostly Cloudy,220,2012-05-01 00:51:00
9:51 PM,71.1,53.1,53,29.88,10.0,NNW,10.4,-,N/A,,Overcast,330,2012-05-01 01:51:00
10:51 PM,64.9,57.0,75,29.91,10.0,NW,13.8,-,N/A,,Overcast,320,2012-05-01 02:51:00
11:51 PM,59.0,57.0,93,29.96,4.0,West,6.9,-,0.09,Rain,Light Rain,280,2012-05-01 03:51:00